Regional Weather Roundup
Issued by NWS Sioux Falls, SD

Home | Current Version | Previous Version | Text Only | Print | Product List | Glossary Off
Versions: 1 2 3 4 5 6 7 8 9 10 11 12 13 14 15 16 17 18 19 20 21 22 23 24 25 26 27 28 29 30 31 32 33 34 35 36 37 38 39 40 41 42 43 44 45 46 47 48 49 50

000
ASUS43 KFSD 271910
RWRFSD

WEATHER ROUNDUP FOR SE SOUTH DAKOTA/SW MINNESOTA/NW IOWA
NATIONAL WEATHER SERVICE SIOUX FALLS SD
200 PM CDT WED JUL 27 2016

NOTE: "FAIR" INDICATES FEW OR NO CLOUDS BELOW 12,000 FEET WITH NO
SIGNIFICANT WEATHER AND OR OBSTRUCTIONS TO VISIBILITY.


SDZ038>040-050-052>070-272000-
SOUTHEAST SOUTH DAKOTA

CITY           SKY/WX    TMP DP  RH WIND       PRES   REMARKS
BROOKINGS      PTSUNNY   77  64  64 N13       30.02F
CHAMBERLAIN    MOSUNNY   85  66  53 E10G16    30.03S
HURON          SUNNY     81  65  58 NE15      30.01F
MADISON        FAIR      75  68  78 NE8       30.04F
MITCHELL       PTSUNNY   82  66  58 N12G20    30.02S
SIOUX FALLS    PTSUNNY   82  68  62 N10       30.00S
WINNER         FAIR      85  66  53 NE12G23   30.04S
YANKTON        SUNNY     84  61  45 NW7       29.99S
$$

MNZ071-072-080-081-089-090-097-098-272000-
SOUTHWEST MINNESOTA

CITY           SKY/WX    TMP DP  RH WIND       PRES   REMARKS
FAIRMONT       PTSUNNY   79  70  73 SW7       29.97F
JACKSON        PTSUNNY   79  68  69 NW12      30.00S
LUVERNE        PTSUNNY   77  64  65 NE9       30.01S
MARSHALL       MOSUNNY   78  66  66 N9        30.00S
MONTEVIDEO     MOSUNNY   81  68  65 N13       30.01S
PIPESTONE      MOSUNNY   79  63  57 N6        30.03F
REDWOOD FALLS  PTSUNNY   80  65  59 NW8       29.96F
TRACY          CLOUDY    78  69  73 N5        30.01S
WINDOM         MOSUNNY   79  68  69 N8        29.99F
WORTHINGTON    PTSUNNY   78  70  76 N9        30.01F
$$

IAZ001>003-012>014-020>022-031-032-NEZ013-014-SDZ071-272000-
NORTHWEST IOWA

CITY           SKY/WX    TMP DP  RH WIND       PRES   REMARKS
CHEROKEE       MOSUNNY   83  71  66 SW5       29.98F
DENISON        MOSUNNY   75  68  78 S10G17    29.98F
ESTHERVILLE    PTSUNNY   82  71  69 SW8       29.98F
LE MARS        MOSUNNY   86  68  54 VRB7G13   29.99F
SHELDON        MOSUNNY   82  70  65 NW9       29.98S
SIOUX CITY     MOSUNNY   87  68  52 S3        29.98F
SPENCER        MOSUNNY   84  68  58 W10       29.98F
STORM LAKE     SUNNY     81  70  69 SW9       30.01S
$$

ABBREVIATIONS USED IN REMARKS
   TC - TEMPERATURE IN CELSIUS
  WCI - WIND CHILL INDEX
   HX - HEAT INDEX
  VSB - VISIBILITY




USA.gov is the U.S. government's official web portal to all federal, state and local government web resources and services.